Location: Burzi?i
(45.0869°N, 16.0577°E)
Time: 11:45:15
(UTC+00:00)

Cosmos 1331 Rocket - Pass Details

Date: 29 October 2020
Orbit: 749 x 778 km, 74.0° (Epoch: 27 November)

Event Time Altitude Azimuth Distance (km) Brightness Sun altitude
Rises 16:22:32 0° 207° (SSW) 3,189 7.8 -6.8°
Reaches altitude 10° 16:24:54 10° 209° (SSW) 2,266 7.1 -7.2°
Maximum altitude 16:30:01 68° 293° (WNW) 808 4.4 -8.1°
Drops below altitude 10° 16:35:09 10° 17° (NNE) 2,280 6.2 -8.9°
Sets 16:37:33 0° 20° (NNE) 3,210 6.9 -9.4°
